Regional Weather Roundup
Issued by NWS Upton, NY

Current Version | Previous Version | Graphics & Text | Print | Product List | Glossary Off
Versions: 1 2 3 4 5 6 7 8 9 10 11 12 13 14 15 16 17 18 19 20 21 22 23 24 25 26 27 28 29 30 31 32 33 34 35 36 37 38 39 40 41 42 43 44 45 46 47 48 49 50

626
ASUS41 KOKX 241009
RWROKX

REGIONAL WEATHER ROUNDUP
NATIONAL WEATHER SERVICE NEW YORK NY
600 AM EDT SAT JUN 24 2017

NOTE: "FAIR" INDICATES FEW OR NO CLOUDS BELOW 12,000 FEET WITH NO
SIGNIFICANT WEATHER AND/OR OBSTRUCTIONS TO VISIBILITY.

NYZ071-072-176-178-NJZ106-104-241100-
NEW YORK CITY METRO AREA

CITY           SKY/WX    TMP DP  RH WIND       PRES   REMARKS
Central Park   LGT RAIN  73  71  93 VRB3      29.63S FOG
Bronx Bot Gard   N/A     72  70  94 W2        29.62S
LaGuardia APRT LGT RAIN  74  72  93 CALM      29.58F
Kennedy INTL   LGT RAIN  71  71 100 SE7       29.60S FOG
Breezy Point     N/A     66 N/A N/A S3          N/A
Newark/Liberty RAIN      72  71  97 VRB3      29.59F FOG
Teterboro      LGT RAIN  73  71  93 CALM      29.57F
$$

NYZ177-179-078>081-241100-
LONG ISLAND NEW YORK

CITY           SKY/WX    TMP DP  RH WIND       PRES   REMARKS
Jones Beach      N/A     66 N/A N/A S6          N/A
Matinecock PT  NOT AVBL
Farmingdale    NOT AVBL
MacArthur/ISP  CLOUDY    71  69  93 W13G18    29.62R
Shirley        CLOUDY    71  70  96 SW12      29.62R
Mt Sinai Harb    N/A    N/A N/A N/A S7          N/A
Westhampton    CLOUDY    70  67  90 SW9G18    29.63S
East Hampton   MOCLDY    70  67  91 SW14G20   29.61S
Montauk          N/A     72  69  90 SW10G23   29.62S
$$

NYZ052-065-067-241100-
HUDSON VALLEY

CITY           SKY/WX    TMP DP  RH WIND       PRES   REMARKS
White Plains   NOT AVBL
Larchmont Harb   N/A     72 N/A N/A S6          N/A
Croton O-T Hud   N/A     72 N/A N/A S2          N/A
Newburgh       RAIN      72  72 100 SW5       29.60F FOG
Montgomery     LGT RAIN  72  71  97 SW5       29.58S
Poughkeepsie   CLOUDY    72  70  93 VRB3      29.57R
Albany         CLOUDY    71  68  90 S3        29.55R
$$

NJZ001-105-106-008-010-013-015-019>022-104-241100-
NEW JERSEY

CITY           SKY/WX    TMP DP  RH WIND       PRES   REMARKS
Newark/Liberty RAIN      72  71  97 VRB3      29.59F FOG
Teterboro      LGT RAIN  73  71  93 CALM      29.57F
Caldwell       LGT RAIN  73  70  90 CALM      29.59F
Somerville     RAIN      72  71  97 CALM      29.57F FOG
Linden         RAIN      73  70  92 CALM      29.59S
Perth Amboy      N/A     72 N/A N/A MISG        N/A
Sussex         LGT RAIN  71  71 100 CALM      29.59F
Andover          N/A     70  68  93 CALM      29.61S
Trenton        LGT RAIN  72  71  97 N7        29.55F FOG
Millville      CLOUDY    80  76  87 S9        29.58F
Atlantic City  CLOUDY    73  71  93 S13       29.60F
Wrightstown    LGT RAIN  77  73  89 SW9       29.54F
Toms River     CLOUDY    75  72  90 S8        29.59F
Belmar         LGT RAIN  77  73  87 S8        29.60S
$$

PAZ047>061-062-071-241100-
EASTERN PENNSYLVANIA

CITY           SKY/WX    TMP DP  RH WIND       PRES   REMARKS
Philadelphia   CLOUDY    78  73  84 S13       29.54F
Allentown      LGT RAIN  70  68  93 W5        29.62R
Scranton       CLOUDY    70  69  97 SW7       29.63R
$$

CTZ002-004>006-009-010-012-RIZ004-006-007-MAZ004-011-015-241100-
SOUTHERN NEW ENGLAND
 IN CT

CITY           SKY/WX    TMP DP  RH WIND       PRES   REMARKS
Bradley INTL   LGT RAIN  74  72  93 S9        29.55F
Hartford       LGT RAIN  76  71  85 S8        29.56S
Danbury        LGT RAIN  71  71 100 S7        29.61S
Wtrbury/Oxford CLOUDY    72  66  83 W5        29.62R
Bridgeport     CLOUDY    73  69  87 SW10      29.59R
Meriden        LGT RAIN  72  70  93 S5        29.57F
New Haven      CLOUDY    72  70  94 SW12G18   29.60
Chester        FAIR      72  72 100 VRB5      29.60R
Groton         CLOUDY    69  67  93 SW7       29.59R
Wilimantic     CLOUDY    76  71  85 S7        29.57F

 IN RI

CITY           SKY/WX    TMP DP  RH WIND       PRES   REMARKS
Providence     CLOUDY    75  72  90 SW9       29.58R
Block Island   CLOUDY    68  66  93 SW20G26   29.62S FOG
Westerly       CLOUDY    73  69  87 SW9       29.60S
 IN MA

CITY           SKY/WX    TMP DP  RH WIND       PRES   REMARKS
Boston         CLOUDY    74  71  91 SW14      29.53R
Worcester      LGT RAIN  72  68  87 SW13      29.58S
Westfield      CLOUDY    74  71  91 S8          N/A
Provincetown   CLOUDY    68  67  96 SW17G25   29.57F FOG
Nantucket      CLOUDY    66  66 100 SW16      29.65R FOG
$$

ANZ330-335-338-340-345-350-353-355-241100-
COASTAL MARINE OBSERVATIONS


STATION/POSITION TIME  SKY/WX   TEMP    WIND        PRES    VSBY  WAVE
                                AIR SEA DIR/SP/G                  HT/PER
                 (UTC)          (F)     (DEG/KT/KT) (MB)    (MI)  (FT/S)
NY HARB ENTRANCE 0850            68 66  200/ 16/ 17 1002.0          4/ 7
20 S FIRE ISLAND 0950            71 68  210/ 19/ 25 1001.9          7/ 7
GREAT SOUTH BAY  0930            70 75  220/ 16/ 19   N/A
23 SSW MONTAUK P 0850            68 63              1003.4          8/ 7
15 E BARNEGAT LI 0930               61                N/A           8/ 7
HUDSON CANYON    0850            71 65  210/ 19/ 25 1004.4          7/ 7
KINGS POINT      0936            72 66     CALM     1001.7
EXECUTION ROCKS  0945            70     200/  2/  6   N/A
CENTRAL LI SOUND 0930            72     200/ 12/ 14   N/A           2
EASTERN LI SOUND NOT AVBL
ROBBINS REEF     0936                   240/  3/  4 1002.5
$$


>>>>>>>>>>>>>>>>>>>>>>>>>>>> KEY <<<<<<<<<<<<<<<<<<<<<<<<<<<
>                                                          <
>     SKY/WX - Sky Condition/Present Weather               <
>     TMP    - Temperature in Fahrenheit                   <
>     DP     - Dew Point in Fahrenheit                     <
>     RH     - Relative Humidity in Percent                <
>     WIND   - Direction (from) and Speed in MPH           <
>     PRES   - Mean Sea Level Pressure (inches of Hg)      <
>     WCI    - Wind Chill Index                            <
>     VSB    - VISIBILITY IN MILES                         <
>     HX     - HEAT INDEX                                  <
>     TC     - TEMPERATURE IN CELSIUS                      <
>     VRB    - VARIABLE WIND DIRECTION                     <
>                                                          <
>>>>>>>>>>>>>>>>>>>>>>>>>>>> KEY <<<<<<<<<<<<<<<<<<<<<<<<<<<




USA.gov is the U.S. government's official web portal to all federal, state and local government web resources and services.